Menorca, Spain

4:26 PM CET on March 23, 2017 (GMT +0100)
Menorca

Weather History for LEMH - November, 2012

Change the Weather History Date:

Monday, November 5, 2012

  Actual Average Record
Temperature  
Mean Temperature 62 °F -  
Max Temperature 67 °F 61 °F 74 °F (2016)
Min Temperature 57 °F 51 °F 48 °F (2000)
Degree Days  
Heating Degree Days 3    
Growing Degree Days 12 (Base 50)    
Moisture  
Dew Point 54 °F    
Average Humidity 75    
Maximum Humidity 94    
Minimum Humidity 49    
Precipitation  
Precipitation 0.00 in 0.10 in - ()
Sea Level Pressure  
Sea Level Pressure 29.92 in    
Wind  
Wind Speed 6 mph ()    
Max Wind Speed 15 mph    
Max Gust Speed -    
Visibility 5.8 miles    
Events Rain    
Averages and records for this station are not official NWS values.
T = Trace of Precipitation, MM = Missing Value Source: Averaged Metar Reports

Daily Weather History Graph

Daily Weather History Graph

Search for Another Location

Airport or City:

Trip Planner

Search our weather history database for the weather conditions in past years. The results will help you decide how hot, cold, wet, or windy it might be!

Date:

Astronomy

Nov. 05, 2012 Rise Set
Actual Time 7:16 AM CET 5:36 PM CET
Civil Twilight 6:48 AM CET 6:04 PM CET
Nautical Twilight 6:16 AM CET 6:36 PM CET
Astronomical Twilight 5:44 AM CET 7:08 PM CET
Moon 10:57 PM CET (11/5) 12:27 PM CET (11/5)
Length of Visible Light 11h 15m
Length of Day
10h 19m
Waning Gibbous, 65% of the Moon is Illuminated
Nov 5
Waning Gibbous
Nov 7
Last Quarter
Nov 13
New
Nov 20
First Quarter
Nov 28
Full

Hourly Weather History & Observations

Time (CET) Temp. Dew Point Humidity Pressure Visibility Wind Dir Wind Speed Gust Speed Precip Events Conditions
1:00 AM 69 °F 66 °F 87% 29.71 in 4 mi WSW 15.0 mph - -   Scattered Clouds
1:00 AM 68.0 °F 66.2 °F 94% 29.71 in 3.7 mi WSW 13.8 mph - N/A   Partly Cloudy
4:00 AM 66.2 °F 60.8 °F 83% 29.71 in 3.7 mi Variable 2.3 mph - N/A   Partly Cloudy
5:00 AM 62.6 °F 60.8 °F 94% 29.74 in 3.1 mi West 4.6 mph - N/A Rain Light Rain
5:30 AM 62.6 °F 60.8 °F 94% 29.74 in 3.1 mi WNW 5.8 mph - N/A Rain Light Rain
6:00 AM 62.6 °F 60.8 °F 94% 29.77 in 3.7 mi WNW 6.9 mph - N/A Rain Light Rain
6:30 AM 62.6 °F 60.8 °F 94% 29.77 in 5.0 mi WNW 4.6 mph - N/A   Light Drizzle
7:00 AM 62 °F 60 °F 90% 29.81 in 5 mi West 4.6 mph - - Rain Light Drizzle
7:00 AM 60.8 °F 59.0 °F 94% 29.80 in 5.0 mi West 3.5 mph - N/A   Light Drizzle
7:30 AM 60.8 °F 59.0 °F 94% 29.80 in 6.2 mi Variable 2.3 mph - N/A   Scattered Clouds
8:00 AM 60.8 °F 59.0 °F 94% 29.83 in 6.2 mi NNW 3.5 mph - N/A   Scattered Clouds
8:30 AM 60.8 °F 59.0 °F 94% 29.83 in 6.2 mi NNW 5.8 mph - N/A   Scattered Clouds
9:00 AM 62.6 °F 60.8 °F 94% 29.86 in 6.2 mi North 3.5 mph - N/A   Scattered Clouds
9:30 AM 64.4 °F 59.0 °F 83% 29.89 in 6.2 mi North 4.6 mph - N/A   Scattered Clouds
10:00 AM 64.4 °F 59.0 °F 83% 29.89 in 6.2 mi NNW 3.5 mph - N/A   Mostly Cloudy
10:30 AM 66.2 °F 60.8 °F 83% 29.92 in 6.2 mi North 3.5 mph - N/A   Mostly Cloudy
11:00 AM 66.2 °F 59.0 °F 78% 29.92 in 6.2 mi Variable 2.3 mph - N/A   Mostly Cloudy
11:30 AM 66.2 °F 59.0 °F 78% 29.92 in 6.2 mi North 3.5 mph - N/A Rain Light Rain
12:30 PM 66.2 °F 55.4 °F 68% 29.92 in 6.2 mi West 12.7 mph - N/A   Scattered Clouds
1:00 PM 66.2 °F 55.4 °F 68% 29.95 in 6.2 mi NW 10.4 mph - N/A   Scattered Clouds
1:30 PM 66.2 °F 50.0 °F 56% 29.95 in 6.2 mi WNW 12.7 mph - N/A   Scattered Clouds
2:00 PM 66.2 °F 48.2 °F 52% 29.95 in 6.2 mi WNW 10.4 mph - N/A   Partly Cloudy
2:30 PM 66.2 °F 46.4 °F 49% 29.95 in 6.2 mi WNW 10.4 mph - N/A   Partly Cloudy
3:00 PM 64.4 °F 46.4 °F 52% 29.98 in 6.2 mi West 10.4 mph - N/A   Partly Cloudy
3:30 PM 64.4 °F 46.4 °F 52% 29.98 in 6.2 mi West 9.2 mph - N/A   Partly Cloudy
4:00 PM 64.4 °F 48.2 °F 56% 29.98 in 6.2 mi West 9.2 mph - N/A   Partly Cloudy
4:30 PM 62.6 °F 46.4 °F 55% 29.98 in 6.2 mi West 8.1 mph - N/A   Partly Cloudy
5:00 PM 60.8 °F 48.2 °F 63% 30.01 in 6.2 mi NW 6.9 mph - N/A   Partly Cloudy
5:30 PM 59.0 °F 48.2 °F 67% 30.01 in 6.2 mi NW 3.5 mph - N/A   Partly Cloudy
6:00 PM 59.0 °F 50.0 °F 72% 30.01 in 6.2 mi NW 3.5 mph - N/A   Partly Cloudy
6:30 PM 59.0 °F 48.2 °F 67% 30.01 in 6.2 mi Variable 2.3 mph - N/A   Partly Cloudy
7:00 PM 58 °F 49 °F 63% 30.04 in 9 mi West 2.3 mph - -   Scattered Clouds
7:00 PM 59.0 °F 48.2 °F 67% 30.04 in 6.2 mi Variable 1.2 mph - N/A   Partly Cloudy
7:30 PM 59.0 °F 48.2 °F 67% 30.04 in 6.2 mi WNW 4.6 mph - N/A   Partly Cloudy
8:00 PM 59.0 °F 48.2 °F 67% 30.04 in 6.2 mi WNW 3.5 mph - N/A   Partly Cloudy
8:30 PM 59.0 °F 48.2 °F 67% 30.04 in 6.2 mi Variable 2.3 mph - N/A   Partly Cloudy
9:00 PM 59.0 °F 48.2 °F 67% 30.04 in 6.2 mi Variable 2.3 mph - N/A   Partly Cloudy
9:30 PM 57.2 °F 48.2 °F 72% 30.06 in 6.2 mi WNW 3.5 mph - N/A   Partly Cloudy
10:00 PM 57.2 °F 48.2 °F 72% 30.06 in 6.2 mi WNW 3.5 mph - N/A   Partly Cloudy
10:30 PM 59.0 °F 48.2 °F 67% 30.06 in 6.2 mi Variable 1.2 mph - N/A   Partly Cloudy